Location: Larrial
(48.2758°N, 4.5331°W)
Time: 17:10:38
(UTC+00:00)

Iridium 2 - Visible Passes

Search period start: 04 August 2021 00:00
Search period end: 14 August 2021 00:00
Orbit: 502 x 511 km, 85.5° (Epoch: 04 August)

Date Brightness Start Highest point End Pass type
(mag) Time Alt. Az. Time Alt. Az. Time Alt. Az.
05 Aug 7.1 04:17:53 10° NE 04:19:48 13° ENE 04:21:44 10° ESE visible
06 Aug 7.6 04:01:29 10° ENE 04:01:56 10° ENE 04:02:24 10° ENE visible
10 Aug 5.8 04:23:10 10° NNE 04:26:37 32° ENE 04:30:02 10° SE visible
11 Aug 6.3 04:05:38 10° NNE 04:08:48 24° ENE 04:11:56 10° SE visible
12 Aug 6.6 03:48:12 10° NNE 03:50:57 19° ENE 03:53:41 10° ESE visible
13 Aug 6.8 03:30:55 10° NE 03:33:05 14° ENE 03:35:14 10° ESE visible
